FENGYUN 1C DEB

Satellite information

Favourite Embed

Satellite Type and Status

DEBRISIN ORBIT

Key statistics

Satellite FENGYUN 1C DEB at a glance.

Uptime

9617

Days in orbit

Revolutions

≈ 14.6

Per day

Orbit

SSO

Sun Synchronous Orbit

Inclination

99.3

Latest

Satellite identification and parameters

Extended collection of information and parameters for FENGYUN 1C DEB.

Object identification

Identified? True

Debris? True

Object name: FENGYUN 1C DEB

International designator: 1999-025ANK

Object number (NORAD): 30628

Object ID (CCSDS): 30628

Country: PEOPLES REPUBLIC OF CHINA (PRC)

Current information (Y/N): Y

RCS size: SMALL

Orbital parameters

Period: 98.313 minutes

Inclination: 99.3396 deg

SMA: 7056.142 km

Apoapsis: 695.939 km

Periapsis: 660.075 km

RAAN: 150.925 deg

Eccentricy: 0.00254129

Argument of periapsis: 176.2782 deg

Mean anomaly: 183.8611 deg

Mean motion: 14.6471046 rev/day

Mean motion (dot): 0.00013642 rev/day2

B* drag term: 0.0025569337 1/REarth

Two-line elements (TLE)

Creation date: Sept. 6, 2025, 2:09 a.m.

Reference frame: TEME

Reference center: EARTH

Epoch: Sept. 5, 2025, 4:06 p.m. UTC

TLE line 0: 0 FENGYUN 1C DEB

TLE line 1: 1 30628U 99025ANK 25248.67113730 .00013642 00000-0 25569-2 0 9998

TLE line 2: 2 30628 99.3396 150.9250 0025413 176.2782 183.8611 14.64710460970333

Live tracking on map

Real-time ground track for satellite FENGYUN 1C DEB.

In-orbit conjunctions

A list of the most updated potential collisions computed for object FENGYUN 1C DEB.

Target Orbit TCA Probability of collision Miss distance Type
BILSAT 1 SSO 2025-06-01 18:54:00 0.0001508215 309.0 (m) PAYLOAD
CZ-6A DEB LEO 2024-10-18 20:31:56 0.000125398 711.0 (m) DEBRIS

Associated space launch

Chinese polar orbiting meteorological satellite

FENGYUN 1C DEB was lifted into orbit during the mission ‘Long March 4B | Feng Yun 1C’, on board a Long March 4B space rocket.

The launch took place on May 10, 1999, 1:33 a.m. from Launch Complex 7.

For more information about the launch, click the button.

Launch to space Long March 4B | Feng Yun 1C
Long March 4B | Feng Yun 1C

Agency: N/A

Status: Launch Successful

Launch date: May 10, 1999, 1:33 a.m. UTC

Rocket: Long March 4B

Launch pad: Launch Complex 7

Location: Taiyuan Satellite Launch Center, People's Republic of China

...

Latest news about this satellite

There are no fresh news available about this satellite. Check back as we update our databases every day.


Newsletter sign-up

Weekly statistics, charts and insights to help you stay on top of the space industry.